sat.trackr.live / text

‹ back to catalog

AC1-002

NORAD 66745 · 2025-276CH

PAYLOAD ACTIVE UNKNOWN

§ Identity

Operator
Country
UK
Launch date
2025-11-28
Launch site
AFWTR
Launch vehicle
Mass (kg)
RCS (m²)

External: N2YO · Heavens-Above · Gunter

§ Orbital elements

Epoch: 2026-05-25T03:52:42.544992Z

Period
94.84 min
Inclination
97.4204°
Eccentricity
0.0003741
Mean motion
15.18317093 rev/d
Perigee alt
508.3 km
Apogee alt
513.5 km
Semi-major
6,889.1 km
B*
9.8311e-5
RAAN
218.9285°
Arg perigee
80.5652°
Mean anomaly
279.6004°
Rev number
2,691

§ Raw data

AC1-0021 66745U 25276CH  26145.16160353  .00001950  00000+0  98311-4 0  99932 66745  97.4204 218.9285 0003741  80.5652 279.6004 15.18317093 26916

JSON: /api/v1/satellites/66745 · /tle

For live sub-satellite position, see the globe view (requires WebGL).

§ Visibility from observer

Set your observer location to see the next 7 days of passes ≥ 10°. The values pass through the URL so the page stays shareable.

No JS? Fill the form by hand. The geolocation button needs JavaScript.